Teterboro, NJ

1:00 AM EDT on July 28, 2017 (GMT -0400)
Teterboro

Weather History for KTEB - February, 2014

Change the Weather History Date:

Tuesday, February 11, 2014

  Actual Average Record
Temperature  
Mean Temperature 22 °F -  
Max Temperature 27 °F 39 °F 63 °F (2009)
Min Temperature 16 °F 24 °F 10 °F (2008)
Degree Days  
Heating Degree Days 44    
Moisture  
Dew Point 3 °F    
Average Humidity 47    
Maximum Humidity 62    
Minimum Humidity 34    
Precipitation  
Precipitation 0.00 in - - ()
Snow  
Snow 0.00 in - - ()
Snow Depth 5.00 in    
Sea Level Pressure  
Sea Level Pressure 30.37 in    
Wind  
Wind Speed 6 mph (NW)    
Max Wind Speed 13 mph    
Max Gust Speed -    
Visibility 10 miles    
Events      
Averages and records for this station are not official NWS values.
T = Trace of Precipitation, MM = Missing Value Source: NWS Daily Summary

Daily Weather History Graph

Daily Weather History Graph

Search for Another Location

Airport or City:

Trip Planner

Search our weather history database for the weather conditions in past years. The results will help you decide how hot, cold, wet, or windy it might be!

Date:

Astronomy

Feb. 11, 2014 Rise Set
Actual Time 6:55 AM EST 5:26 PM EST
Civil Twilight 6:27 AM EST 5:54 PM EST
Nautical Twilight 5:54 AM EST 6:26 PM EST
Astronomical Twilight 5:22 AM EST 6:58 PM EST
Moon 2:43 PM EST (2/11) 4:31 AM EST (2/11)
Length of Visible Light 11h 27m
Length of Day
10h 30m
Waxing Gibbous, 90% of the Moon is Illuminated
Feb 11
Waxing Gibbous
Feb 14
Full
Feb 22
Last Quarter
Mar 1
New
Mar 8
First Quarter

Hourly Weather History & Observations

Time (EST) Temp. Windchill Dew Point Humidity Pressure Visibility Wind Dir Wind Speed Gust Speed Precip Events Conditions
12:51 AM 18.0 °F - 7.0 °F 62% 30.29 in 10.0 mi Calm Calm - N/A   Clear
1:51 AM 19.0 °F 13.9 °F 7.0 °F 59% 30.30 in 10.0 mi NW 3.5 mph - N/A   Clear
2:51 AM 18.0 °F 9.8 °F 5.0 °F 57% 30.31 in 10.0 mi NW 5.8 mph - N/A   Clear
3:51 AM 18.0 °F 6.9 °F 3.9 °F 54% 30.32 in 10.0 mi WNW 9.2 mph - N/A   Clear
4:51 AM 17.1 °F 5.8 °F 3.0 °F 54% 30.33 in 10.0 mi WNW 9.2 mph - N/A   Clear
5:51 AM 16.0 °F 6.3 °F 3.0 °F 57% 30.35 in 10.0 mi WNW 6.9 mph - N/A   Clear
6:51 AM 16.0 °F 7.4 °F 1.9 °F 54% 30.36 in 10.0 mi WNW 5.8 mph - N/A   Clear
7:51 AM 16.0 °F 7.4 °F 1.9 °F 54% 30.38 in 10.0 mi West 5.8 mph - N/A   Clear
8:51 AM 19.0 °F 8.2 °F 1.9 °F 47% 30.39 in 10.0 mi NW 9.2 mph - N/A   Clear
9:51 AM 19.9 °F 7.3 °F 1.9 °F 46% 30.39 in 10.0 mi NW 12.7 mph - N/A   Clear
10:51 AM 21.9 °F 13.4 °F 1.9 °F 42% 30.39 in 10.0 mi WNW 6.9 mph - N/A   Clear
11:51 AM 23.0 °F 14.7 °F 3.0 °F 42% 30.37 in 10.0 mi WNW 6.9 mph - N/A   Clear
12:51 PM 24.1 °F 13.7 °F 1.9 °F 38% 30.34 in 10.0 mi NW 10.4 mph - N/A   Clear
1:51 PM 26.1 °F 16.8 °F 3.9 °F 39% 30.32 in 10.0 mi NNW 9.2 mph - N/A   Clear
2:51 PM 27.0 °F 17.3 °F 3.0 °F 36% 30.32 in 10.0 mi North 10.4 mph - N/A   Clear
3:51 PM 27.0 °F 16.7 °F 3.0 °F 36% 30.34 in 10.0 mi NW 11.5 mph - N/A   Clear
4:51 PM 27.0 °F 18.0 °F 1.9 °F 34% 30.35 in 10.0 mi NNW 9.2 mph - N/A   Clear
5:51 PM 25.0 °F 14.8 °F 1.9 °F 37% 30.38 in 10.0 mi NNW 10.4 mph - N/A   Clear
6:51 PM 23.0 °F 14.7 °F 3.0 °F 42% 30.41 in 10.0 mi NW 6.9 mph - N/A   Clear
7:51 PM 21.9 °F 11.0 °F 1.9 °F 42% 30.43 in 10.0 mi NW 10.4 mph - N/A   Clear
8:51 PM 21.0 °F 12.4 °F 1.9 °F 44% 30.45 in 10.0 mi NW 6.9 mph - N/A   Clear
9:51 PM 19.9 °F 9.3 °F 1.9 °F 46% 30.47 in 10.0 mi NW 9.2 mph - N/A   Clear
10:51 PM 19.0 °F 8.2 °F 1.9 °F 47% 30.48 in 10.0 mi NNW 9.2 mph - N/A   Clear
11:51 PM 18.0 °F 8.7 °F 1.9 °F 50% 30.48 in 10.0 mi NNW 6.9 mph - N/A   Clear